Regional Weather Roundup
Issued by NWS

Home | Current Version | Previous Version | Text Only | Print | Product List | Glossary On
Versions: 1 2 3 4 5 6 7 8 9 10 11 12 13 14 15 16 17 18 19 20 21 22 23 24 25 26 27 28 29 30 31 32 33 34 35 36 37 38 39 40 41 42 43 44 45 46 47 48 49 50
000
ASUS43 KBIS 282002
RWRND

NORTH DAKOTA REGIONAL WEATHER ROUNDUP
NATIONAL WEATHER SERVICE BISMARCK ND
300 PM CDT FRI APR 28 2017

NOTE: "FAIR" INDICATES FEW OR NO CLOUDS BELOW 12,000 FEET WITH NO
SIGNIFICANT WEATHER AND/OR OBSTRUCTIONS TO VISIBILITY.


NDZ001>003-009>011-017-282100-
NORTHWEST NORTH DAKOTA

CITY           SKY/WX    TMP DP  RH WIND       PRES   REMARKS
WILLISTON      FAIR      56  23  27 S6        30.05S
MINOT          FAIR      55  13  18 NW9G20    30.05R
MINOT AFB      SUNNY     53  16  23 NW5       30.04S
$$

NDZ018>021-031>035-040>046-282100-
SOUTHWEST NORTH DAKOTA

CITY           SKY/WX    TMP DP  RH WIND       PRES   REMARKS
BISMARCK       FAIR      56  11  16 N15       30.05R
DICKINSON      FAIR      50  19  29 CALM      30.02R
GARRISON         N/A     52  13  21 VRB5      30.05R
HETTINGER ARPT SUNNY     51  25  36 E8        30.03R
$$

NDZ004>008-012>016-024-026-027-054-282100-
NORTHEAST NORTH DAKOTA

CITY           SKY/WX    TMP DP  RH WIND       PRES   REMARKS
GRAND FORKS    SUNNY     53  27  36 N21G26    30.01R
GRND FRKS AFB  SUNNY     51  23  32 N15G23    30.02R
DEVILS LAKE    FAIR      52  13  21 NW18      30.03R
$$

NDZ022-023-025-028>030-036>039-047>053-282100-
SOUTHEAST NORTH DAKOTA

CITY           SKY/WX    TMP DP  RH WIND       PRES   REMARKS
FARGO          SUNNY     52  24  33 N18       30.01R
JAMESTOWN      FAIR      53  21  28 N14       30.02R
$$




USA.gov is the U.S. government's official web portal to all federal, state and local government web resources and services.